sat.trackr.live / text

‹ back to catalog

STARLINK-37261

NORAD 68567 · 2026-070AB

PAYLOAD ACTIVE UNKNOWN

§ Identity

Operator
Country
US
Launch date
2026-04-02
Launch site
AFETR
Launch vehicle
Mass (kg)
RCS (m²)

Purposes: comms

External: N2YO · Heavens-Above · Gunter

§ Orbital elements

Epoch: 2026-09-20T01:17:50.504064Z

Period
93.85 min
Inclination
53.1567°
Eccentricity
0.0000491
Mean motion
15.34404038 rev/d
Perigee alt
462.4 km
Apogee alt
463.0 km
Semi-major
6,840.8 km
B*
3.4329e-4
RAAN
175.4386°
Arg perigee
88.5609°
Mean anomaly
271.5450°
Rev number
2,637

§ Raw data

STARLINK-372611 68567U 26070AB  26263.05405676  .00011242  00000+0  34329-3 0  99922 68567  53.1567 175.4386 0000491  88.5609 271.5450 15.34404038 26379

JSON: /api/v1/satellites/68567 · /tle

For live sub-satellite position, see the globe view (requires WebGL).

§ Visibility from observer

Set your observer location to see the next 7 days of passes ≥ 10°. The values pass through the URL so the page stays shareable.

No JS? Fill the form by hand. The geolocation button needs JavaScript.